ISS (ZARYA) 1 25544U 98067A 21015.90475541 .00001829 00000-0 40904-4 0 9995 2 25544 51.6460 15.9360 0000320 239.4903 199.1723 15.49298839264993 KESTREL EYE IIM (KE2M) 1 42982U 98067NE 21015.79026371 .00025269 00000-0 13837-3 0 9998 2 42982 51.6331 271.3692 0003849 171.9111 188.1953 15.79656307184514 DELLINGR (RBLE) 1 43021U 98067NJ 21015.76950754 .00029272 00000-0 14485-3 0 9999 2 43021 51.6305 268.2778 0003517 140.3256 219.8004 15.81784197180328 TEMPEST-D 1 43547U 98067NV 21015.31030796 .00011102 00000-0 88982-4 0 9995 2 43547 51.6353 317.9422 0006306 122.3517 237.8092 15.71606470142704 RADSAT-G 1 43553U 98067PB 21015.73545841 .00053111 00000-0 22085-3 0 9997 2 43553 51.6363 285.5802 0005956 156.5399 203.5878 15.85171231143600 AEROCUBE 12A 1 43556U 18046C 21015.68991261 .00002416 00000-0 91991-4 0 9999 2 43556 51.6395 165.1705 0007501 338.6240 21.4427 15.30811249139870 AEROCUBE 12B 1 43557U 18046D 21015.79780319 .00001471 00000-0 61546-4 0 9995 2 43557 51.6411 165.8689 0007707 338.6336 21.4322 15.30370880139822 LEMUR-2-VU 1 43558U 18046E 21015.51792983 .00002452 00000-0 88559-4 0 9999 2 43558 51.6403 160.4169 0006682 342.7406 17.3347 15.32523056139911 LEMUR-2-ALEXANDER 1 43559U 18046F 21015.65642422 .00003282 00000-0 11389-3 0 9995 2 43559 51.6401 159.1099 0006617 342.5065 17.5687 15.32715789139728 LEMUR-2-YUASA 1 43560U 18046G 21015.80664740 .00003256 00000-0 11392-3 0 9996 2 43560 51.6400 159.3399 0006910 357.4523 2.6422 15.32471023139951 LEMUR-2-TOMHENDERSON 1 43561U 18046H 21015.79100305 .00003188 00000-0 11284-3 0 9991 2 43561 51.6405 159.9745 0007139 356.7036 3.3897 15.32158220139509 1998-067PN 1 43638U 98067PN 21015.82194508 .00018183 00000-0 14177-3 0 9994 2 43638 51.6347 312.3152 0003510 111.6718 248.4655 15.71764031129981 1998-067PP 1 43639U 98067PP 21015.78295188 .00078279 00000-0 28306-3 0 9997 2 43639 51.6283 290.8605 0005953 140.0345 220.1099 15.87884377130264 STARS-ME 1 43640U 98067PQ 21015.84246976 .00027441 00000-0 17776-3 0 9991 2 43640 51.6321 304.8473 0005179 118.1615 241.9908 15.75807535130082 ISS DEB (SEDA-AP) 1 43870U 98067PU 21015.75949305 .00004334 00000-0 58619-4 0 9990 2 43870 51.6377 340.5378 0004655 113.8535 246.2946 15.60100249117773 CATSAT-2 1 44029U 98067PV 21015.85580233 .00060361 00000-0 31273-3 0 9997 2 44029 51.6395 311.1441 0004185 142.5880 217.5414 15.80437243111904 DELPHINI 1 44030U 98067PW 21015.78946150 .00081204 00000-0 33038-3 0 9995 2 44030 51.6297 306.6581 0005541 137.8138 222.3293 15.85460007111921 UNITE 1 44031U 98067PX 21015.84194800 .00015760 00000-0 14348-3 0 9997 2 44031 51.6381 327.5647 0003493 126.5645 233.5673 15.68119118111654 CATSAT-1 1 44033U 98067PZ 21015.79265767 .00061506 00000-0 31854-3 0 9994 2 44033 51.6392 311.4827 0003964 143.5383 216.5889 15.80439206111805 ISS DEB 1 44303U 98067QA 21015.43838957 .00005368 00000-0 80001-4 0 9995 2 44303 51.6411 0.2912 0005876 42.9146 317.2303 15.56874923 92752 ISS DEB 1 44304U 98067QB 21015.76353244 .00075432 00000-0 39010-3 0 9995 2 44304 51.6361 330.0770 0006015 83.8018 276.3669 15.80376103 93194 ISS DEB 1 44305U 98067QC 21015.04374372 .01427137 15990-2 10058-2 0 9992 2 44305 51.6168 318.8114 0008750 161.4542 198.6795 16.15810752 93276 ISS DEB 1 44306U 98067QD 21015.44124361 .00005793 00000-0 84971-4 0 9998 2 44306 51.6398 0.2270 0007005 38.9115 321.2380 15.57134590 92764 RAAVANA-1 1 44329U 98067QE 21015.27231731 .00019647 00000-0 19919-3 0 9996 2 44329 51.6383 347.8598 0006631 75.9797 284.1935 15.65227171 90080 UGUISU 1 44330U 98067QF 21015.62053928 .00016965 00000-0 17407-3 0 9997 2 44330 51.6363 346.3794 0006534 77.0455 283.1270 15.65044640 90111 NEPALISAT-1 1 44331U 98067QG 21015.32738673 .00019486 00000-0 19770-3 0 9998 2 44331 51.6358 347.4235 0006570 78.0257 282.1475 15.65215358 90087 SPOOQY-1 1 44332U 98067QH 21015.60897452 .00016319 00000-0 16857-3 0 9996 2 44332 51.6369 346.3226 0005831 81.2276 278.9380 15.64912221 90084 RED-EYE 1 (PINOT) 1 44364U 98067QJ 21015.64718250 .00005204 00000-0 78167-4 0 9997 2 44364 51.6416 0.1693 0007260 38.8067 321.3445 15.56727178 88368 IOD-1 GEMS 1 44385U 98067QK 21015.38529055 .00057335 00000-0 36435-3 0 9997 2 44385 51.6370 338.1191 0005064 80.9875 279.1698 15.75887797 87692 SWIATOWID 1 44426U 98067QL 21015.78260995 .00093537 00000-0 47567-3 0 9994 2 44426 51.6400 332.2819 0005656 88.3026 351.3495 15.80661553 87819 KRAKSAT 1 44427U 98067QM 21015.79900865 .00014328 00000-0 17317-3 0 9994 2 44427 51.6442 352.8068 0004109 45.5214 22.6173 15.60982947 87582 VCC A 1 44428U 98067QN 21015.62681669 .00015964 00000-0 16986-3 0 9993 2 44428 51.6394 348.7856 0003932 61.2220 298.9170 15.64185507 87624 ENTRYSAT 1 44429U 98067QP 21015.62639126 .00022370 00000-0 20922-3 0 9999 2 44429 51.6358 344.9552 0004011 63.4524 296.6883 15.67169531 87679 VCC C 1 44430U 98067QQ 21015.62158266 .00038581 00000-0 29577-3 0 9998 2 44430 51.6358 340.4154 0004383 76.6480 283.5006 15.71691067 86567 VCC B 1 44431U 98067QR 21015.61450488 .00016321 00000-0 17232-3 0 9992 2 44431 51.6370 348.6537 0004066 60.5553 299.5847 15.64362550 87563 ISS DEB 1 44788U 98067QT 21015.79757499 .00037081 00000-0 32725-3 0 9998 2 44788 51.6381 353.6275 0006511 71.3982 288.7721 15.68295823 66546 ISS DEB 1 44789U 98067QU 21015.42644974 .00033371 00000-0 31839-3 0 9995 2 44789 51.6377 357.1756 0007200 69.5009 290.6759 15.66415482 66456 RWASAT-1 1 44790U 98067QV 21015.80908718 .00010581 00000-0 15478-3 0 9997 2 44790 51.6422 4.8405 0008316 85.3404 339.5321 15.56178539 65657 AQT-D 1 44791U 98067QW 21015.45315534 .00007424 00000-0 11074-3 0 9997 2 44791 51.6425 7.1554 0007442 58.7724 301.3996 15.56180692 65591 NARSSCUBE-1 1 44792U 98067QX 21015.80803714 .00011649 00000-0 15229-3 0 9999 2 44792 51.6398 1.9641 0006000 76.3479 283.8182 15.59115999 65695 STPSAT-4 1 45043U 98067QY 21015.70473574 .00003786 00000-0 69156-4 0 9997 2 45043 51.6421 14.0125 0006229 71.4063 288.7603 15.52087630 54763 HARP 1 45256U 98067QZ 21015.47563285 .00008311 00000-0 12969-3 0 9994 2 45256 51.6427 11.7701 0007881 64.3217 295.8587 15.54740190 51447 1998-067RA 1 45257U 98067RA 21015.69561004 .00005977 00000-0 97066-4 0 9993 2 45257 51.6415 10.9646 0008393 67.0338 293.1537 15.54231119 51472 PHOENIX 1 45258U 98067RB 21015.68258438 .00004996 00000-0 84103-4 0 9995 2 45258 51.6415 11.6148 0006657 50.6208 309.5372 15.53636116 51433 1998-067RC 1 45259U 98067RC 21015.69490185 .00009278 00000-0 13754-3 0 9995 2 45259 51.6407 9.4591 0007744 65.0957 295.0838 15.55993797 51496 CRYOCUBE 1 45260U 98067RD 21015.67346026 .00010565 00000-0 15575-3 0 9993 2 45260 51.6408 9.3180 0008411 65.4268 294.7599 15.55968532 51504 AZTECHSAT-1 1 45261U 98067RE 21015.55943186 .00011991 00000-0 16610-3 0 9996 2 45261 51.6402 8.5541 0008160 64.6127 295.5709 15.57514465 51491 RADSAT-U 1 45262U 98067RF 21015.67646144 .00006014 00000-0 96926-4 0 9993 2 45262 51.6430 10.8595 0007170 96.0919 264.0889 15.54436168 51485 QARMAN 1 45263U 98067RG 21015.28514026 .00009577 00000-0 14270-3 0 9992 2 45263 51.6409 11.9703 0007772 60.6704 299.5062 15.55808431 51452 SORTIE 1 45264U 98067RH 21015.71464702 .00004175 00000-0 73888-4 0 9996 2 45264 51.6427 12.6001 0008102 71.6240 288.5631 15.52698008 51451 ICS-EF (ISS DEB) 1 45265U 98067RJ 21015.71947317 .00002485 00000-0 49637-4 0 9992 2 45265 51.6426 14.8542 0006062 72.1051 288.0599 15.51115176 51103 PROGRESS-MS 14 1 45595U 20026A 21015.52960699 .00001879 00000-0 41803-4 0 9998 2 45595 51.6459 17.7926 0000331 233.9493 270.9535 15.49297402264930 G-SAT 1 45597U 98067RK 21015.68105305 .00005952 00000-0 97317-4 0 9999 2 45597 51.6420 12.3750 0005142 114.3604 245.7924 15.54061025 40825 QUETZAL-1 1 45598U 98067RL 21015.68832999 .00007692 00000-0 12138-3 0 9996 2 45598 51.6418 12.4203 0002717 122.6693 237.4560 15.54570128 40757 RED-EYE 2 (MERLOT) 1 45800U 98067RM 21015.79800460 .00003400 00000-0 64086-4 0 9995 2 45800 51.6430 14.6434 0001948 85.5144 274.6068 15.51529444 32973 RED-EYE 3 (CABERNET) 1 45809U 98067RN 21015.79857855 .00003407 00000-0 64199-4 0 9996 2 45809 51.6430 14.6474 0002184 77.8518 282.2716 15.51526839 31955 DEMI 1 45916U 98067RP 21015.48037504 .00008930 00000-0 14355-3 0 9996 2 45916 51.6423 14.7819 0002959 29.1158 330.9997 15.53821922 28917 TECHEDSAT 10 1 45917U 98067RQ 21015.81757710 .00079842 00000-0 65401-3 0 9990 2 45917 51.6365 5.7550 0008089 63.2375 296.9450 15.69764715 29015 PROGRESS-MS 15 1 45937U 20050A 21015.52960699 .00001879 00000-0 41803-4 0 9995 2 45937 51.6459 17.7926 0000331 233.9493 270.9535 15.49297402264930 CYGNUS NG-14 1 46530U 20069A 21015.90186847 .00001922 00000-0 82633-4 0 9997 2 46530 51.6431 17.3981 0010102 320.9587 115.3958 15.27784877 16237 SOYUZ-MS 17 1 46613U 20072A 21015.52960699 .00001879 00000-0 41803-4 0 9991 2 46613 51.6459 17.7926 0000331 233.9493 270.9535 15.49297402264932 CREW DRAGON 1 1 46920U 20084A 21015.52960699 .00001879 00000-0 41803-4 0 9995 2 46920 51.6459 17.7926 0000331 233.9493 270.9535 15.49297402264933 SPOC 1 46921U 98067RR 21015.42825776 .00005074 00000-0 91960-4 0 9997 2 46921 51.6439 17.4286 0001321 211.3647 148.7264 15.51488266 11089 BOBCAT-1 1 46922U 98067RS 21015.28944220 .00007361 00000-0 12781-3 0 9992 2 46922 51.6440 18.0037 0000822 210.2131 149.8812 15.51949940 11020 NEUTRON-1 1 46923U 98067RT 21015.69010727 .00004865 00000-0 88778-4 0 9990 2 46923 51.6439 16.1767 0001094 237.1738 122.9146 15.51390607 11157 1998-067RU 1 46924U 98067RU 21015.40268564 .00012225 00000-0 20135-3 0 9995 2 46924 51.6429 17.2571 0001057 332.4880 27.6054 15.52745870 11086 LEMUR-2-BAXTER-OLIVER 1 46925U 98067RV 21015.71838772 .00010889 00000-0 17869-3 0 9998 2 46925 51.6438 15.6197 0001132 324.1897 35.9017 15.52980792 11099 LEMUR-2-DJARA 1 46926U 98067RW 21015.78709299 .00010088 00000-0 16694-3 0 9993 2 46926 51.6438 15.3277 0000194 323.5839 36.5138 15.52836816 11124 DESCENT 1 46927U 98067RX 21015.69257186 .00004902 00000-0 89500-4 0 9992 2 46927 51.6438 16.1923 0001280 279.8327 80.2518 15.51355380 11066